Theta_e
310 311 311 312 313 315 317 317 315 314 313 312 311 312 312 312 313 314 313 311 311 313 313 312 313 310 315 329 337 338 338 337 337 338 336 336 335 336 336 336 336 337 337 337 338 338 337 337 336 336 334 331 330 329 333 333 330 332 333 331 330 329 329 328 327 326 326 325 323 322 321 321 321 320 320 320 319 319 318 316 314 311 310 311 316 319
310 311 313 315 317 320 321 319 318 316 315 313 312 312 312 312 314 313 311 312 311 313 313 310 311 311 315 328 337 338 338 337 337 337 337 336 335 335 335 336 336 337 337 336 337 337 337 337 336 336 336 334 331 327 328 331 330 331 333 332 330 329 330 328 327 325 325 324 322 321 319 317 317 317 318 316 314 314 314 312 309 306 307 311 317 319
311 312 315 317 316 318 318 317 317 316 316 315 312 313 314 312 312 313 312 312 312 312 313 309 310 315 318 326 334 335 337 338 337 337 337 336 335 335 335 336 336 336 336 336 337 337 337 338 337 337 336 335 333 330 327 327 330 331 332 333 331 330 330 329 327 325 324 324 322 320 317 314 314 314 314 312 309 310 311 310 308 307 307 310 314 317
312 312 314 314 314 316 317 316 317 316 315 315 313 313 315 312 311 313 314 314 313 313 313 311 313 319 321 327 331 329 331 336 338 338 337 336 336 336 335 335 336 336 336 336 336 337 338 337 337 337 336 335 334 334 330 326 328 330 330 332 331 330 329 329 327 323 323 323 321 319 316 314 313 312 311 310 309 309 310 310 310 309 308 308 311 313
311 311 310 311 313 315 317 316 315 314 314 315 316 314 314 314 312 312 315 316 316 315 315 315 315 318 321 328 332 326 326 333 336 337 338 337 336 336 335 336 336 336 336 336 336 337 338 337 336 336 335 334 334 335 332 326 326 328 329 331 332 331 330 329 328 323 321 321 319 317 315 313 313 312 311 310 309 309 309 309 309 309 309 309 309 309
311 310 308 312 314 313 315 316 315 314 314 315 317 316 314 316 315 315 316 317 316 315 315 315 313 315 316 322 331 329 327 331 333 335 337 336 336 335 335 335 335 335 335 336 336 337 338 337 337 336 333 334 334 334 332 328 326 326 327 329 331 332 331 330 329 324 322 321 318 315 313 313 312 311 310 308 307 307 307 307 307 308 310 310 309 308
310 308 309 314 315 313 312 313 314 315 314 313 318 318 314 314 316 317 317 316 315 314 315 314 313 315 314 317 324 325 326 330 330 332 335 336 336 336 335 335 334 334 334 334 335 337 339 338 337 335 332 332 333 332 331 328 326 326 326 327 330 332 331 331 329 325 321 319 317 315 313 311 310 309 308 308 307 307 307 307 307 309 310 310 310 310
311 310 311 314 315 313 311 312 315 314 312 314 319 316 312 312 315 318 318 316 315 315 315 315 314 315 315 315 316 317 323 328 328 330 333 335 336 335 335 334 334 334 333 333 335 338 339 338 336 335 333 331 331 331 330 327 324 324 326 327 329 331 332 331 330 325 321 318 316 314 312 309 308 308 308 307 307 307 306 307 308 311 311 310 309 309
313 315 314 315 314 312 312 315 315 313 313 315 315 312 311 313 316 318 317 316 317 316 314 316 316 315 315 316 314 315 321 325 326 327 330 333 334 334 335 334 333 333 333 333 334 337 339 338 336 335 334 332 331 330 330 328 326 325 327 328 329 331 332 332 330 326 321 318 316 314 311 309 308 308 308 308 307 307 307 306 307 310 312 310 308 309
313 312 312 313 313 313 315 315 312 313 314 312 310 311 311 313 315 316 316 316 317 316 314 316 317 315 315 316 315 316 319 322 322 323 325 329 332 332 333 333 333 333 333 334 334 336 339 338 336 335 335 334 333 331 331 330 329 326 327 330 330 331 331 331 329 325 320 316 315 314 312 309 309 309 309 309 307 307 306 306 306 308 309 309 308 310
311 310 311 312 312 312 313 310 308 311 312 310 311 312 313 314 316 317 316 316 316 315 314 315 316 316 314 315 316 316 317 317 318 318 318 321 325 329 331 331 332 333 334 334 335 336 338 338 337 335 335 336 335 332 332 332 329 327 329 330 330 329 330 330 328 323 316 314 315 315 313 311 309 309 309 309 308 307 306 306 305 306 306 307 308 310
311 310 311 312 311 310 309 309 307 308 308 310 313 314 313 314 316 316 316 316 315 315 315 314 315 317 315 315 316 317 317 316 316 318 316 316 319 323 327 329 331 332 333 333 334 334 336 337 336 335 335 336 335 333 332 331 328 328 330 330 330 329 329 328 327 321 314 314 316 316 316 313 309 309 309 308 307 307 306 305 305 305 305 306 307 310
314 312 311 311 311 310 310 311 309 308 309 311 314 314 313 314 315 315 315 315 315 315 315 313 315 316 315 316 316 317 319 319 320 320 319 318 317 317 321 326 328 330 331 332 332 332 332 333 334 333 334 334 334 334 332 330 329 329 329 328 328 329 327 326 326 321 313 314 317 317 318 316 313 311 309 308 307 306 306 306 305 306 305 305 307 309
314 314 311 310 311 311 311 312 312 311 311 312 313 315 314 313 314 314 314 313 314 316 314 313 315 315 314 316 316 318 320 321 323 323 322 321 319 318 320 324 326 328 329 330 330 330 329 329 330 331 332 332 333 332 331 329 329 329 327 326 326 326 326 326 326 320 313 315 318 318 319 319 318 316 310 307 307 307 306 305 306 306 305 305 306 308
314 313 313 313 312 310 311 312 313 312 311 311 311 313 313 314 314 314 314 314 315 316 315 313 314 316 316 316 316 317 320 322 323 322 322 322 321 322 323 324 326 327 328 328 328 328 329 328 328 328 330 331 331 331 330 328 328 328 327 326 325 325 325 326 326 320 313 315 319 319 321 321 321 319 313 308 307 306 306 306 305 305 305 305 306 307
311 312 313 312 309 309 311 311 310 311 311 309 309 312 313 314 316 313 312 314 315 316 316 314 314 315 315 315 314 317 322 323 323 323 323 324 323 324 325 325 326 326 326 327 327 328 329 328 327 326 327 329 329 330 328 325 327 328 326 325 324 323 323 324 323 318 314 316 319 320 322 321 321 320 314 308 307 307 306 306 305 305 305 305 305 306
311 314 314 310 308 308 308 309 309 310 312 310 309 312 311 312 317 316 311 312 314 316 315 313 315 317 316 315 316 319 323 322 323 324 325 325 325 326 326 326 326 326 327 327 327 327 326 326 325 324 325 327 327 329 327 325 327 327 325 324 324 321 321 321 319 315 314 315 316 318 320 320 321 321 314 308 308 307 306 306 306 305 305 305 305 305
312 315 314 310 310 309 306 308 308 307 309 311 310 312 310 310 314 316 314 313 313 315 314 312 315 318 317 317 317 320 324 323 323 323 324 325 326 327 326 326 326 326 326 326 325 323 322 323 323 324 325 326 327 328 327 326 327 327 324 324 325 322 321 321 319 317 316 315 315 317 317 317 319 322 317 309 307 307 307 309 310 309 308 305 305 305
312 314 314 310 310 309 307 309 310 307 307 309 311 310 310 312 314 314 314 315 314 314 313 312 313 315 316 317 317 320 325 325 323 322 323 324 325 325 325 324 324 323 323 322 321 320 320 320 320 321 323 325 326 327 327 327 328 329 328 327 326 324 324 325 323 321 321 320 320 321 319 318 319 322 318 310 307 307 308 310 312 313 310 307 306 306
313 315 314 311 308 309 309 310 311 310 308 308 310 309 311 314 315 313 314 315 315 313 312 313 314 315 316 315 316 319 322 324 324 323 323 323 323 322 322 322 321 320 320 319 318 318 317 317 317 318 319 322 326 326 327 328 329 329 330 330 329 328 328 328 325 323 323 323 323 323 321 320 320 322 319 312 308 308 309 309 311 311 310 307 307 307
315 314 314 313 309 308 310 310 310 311 310 310 311 312 312 312 311 312 312 312 313 313 312 313 314 315 315 312 314 317 317 320 323 323 322 322 322 321 320 320 320 319 320 319 317 317 317 317 318 318 318 322 325 326 326 327 328 328 328 329 330 330 330 329 326 325 324 323 324 323 323 321 321 321 319 314 310 309 309 309 309 310 308 308 308 307
316 313 315 317 312 310 310 307 306 307 308 310 312 313 313 313 311 313 312 310 311 312 312 313 315 315 314 312 313 315 314 315 318 322 323 322 322 321 320 321 321 321 322 321 321 322 322 322 322 323 323 325 327 327 326 327 327 327 327 328 329 329 329 329 327 326 325 324 324 324 324 323 322 321 319 315 312 310 310 309 309 309 308 307 308 307
316 317 317 314 310 309 308 306 305 305 306 308 310 310 311 314 315 315 314 312 311 310 310 312 314 314 313 312 313 315 315 314 316 322 324 321 322 322 321 322 323 324 325 325 326 326 326 326 326 326 326 327 327 327 327 327 327 326 327 327 327 327 327 327 327 326 325 325 324 324 324 324 323 321 318 316 315 313 312 310 309 309 308 308 309 308
318 319 315 309 309 309 308 307 306 306 307 309 309 307 308 312 315 316 317 316 314 311 312 313 313 314 313 310 312 315 318 317 317 322 323 322 322 322 321 323 323 324 325 324 325 325 325 326 326 326 326 326 326 326 326 326 326 325 325 325 326 326 326 326 326 326 326 325 325 324 324 324 323 322 319 316 317 317 317 313 311 311 310 308 309 311
316 317 315 310 309 309 309 310 308 308 309 309 308 307 307 309 313 315 315 315 314 312 313 313 313 314 313 310 311 314 317 319 320 321 322 322 322 321 321 322 322 323 323 323 324 323 324 324 324 324 325 324 325 325 325 324 324 323 323 323 324 325 325 325 325 325 325 325 325 325 324 323 323 323 321 318 318 318 319 318 315 314 312 309 309 311
314 313 314 312 311 311 310 310 310 310 310 309 307 307 307 308 313 315 313 313 313 311 311 312 314 314 313 310 310 311 313 316 317 318 319 319 320 320 320 321 322 322 322 322 323 323 323 323 323 323 323 323 323 323 324 323 323 323 323 323 323 324 324 324 324 324 324 324 325 325 324 324 323 323 323 322 321 320 319 319 318 316 313 310 309 311
316 312 310 311 310 310 309 307 307 308 310 309 308 308 308 307 311 315 313 312 313 311 311 312 314 316 313 309 309 309 310 312 313 314 315 316 317 318 319 320 320 321 321 321 322 322 322 322 322 323 323 323 323 323 323 323 323 324 323 323 323 323 323 323 323 323 323 323 324 324 324 324 324 324 324 323 323 321 319 318 319 318 315 311 310 313
321 314 309 310 308 306 306 306 306 307 308 308 309 310 310 310 312 315 314 313 313 312 313 313 314 316 312 307 307 308 308 310 311 312 312 313 315 317 317 318 319 319 320 320 321 321 321 322 322 322 322 323 323 323 323 323 323 323 323 323 322 322 322 322 322 322 322 322 323 324 324 324 324 324 322 321 320 320 318 318 319 319 317 314 312 313
323 316 311 310 308 307 308 308 308 308 307 307 308 308 309 312 315 315 311 310 312 313 313 313 312 313 309 306 306 306 306 308 309 310 310 311 313 314 315 316 315 315 316 316 317 318 319 319 320 320 321 321 322 322 323 323 323 323 323 323 322 322 322 321 321 321 321 321 321 322 323 323 323 323 321 318 317 318 318 318 320 319 318 317 315 314
318 315 311 310 310 309 309 309 309 310 309 308 308 307 307 308 310 310 308 307 309 311 310 310 310 308 305 304 305 305 306 307 308 309 310 310 311 312 312 312 311 311 311 311 312 313 314 315 316 317 318 318 318 319 320 321 321 321 322 322 322 322 321 321 321 320 320 319 319 320 321 322 322 322 321 319 318 317 317 318 319 319 318 318 317 315
314 313 312 313 312 310 311 311 312 312 310 309 309 309 310 310 310 309 308 308 309 309 308 309 309 306 304 303 304 304 305 307 308 308 308 308 309 309 309 308 308 308 308 308 308 309 310 311 312 312 313 312 312 313 315 317 318 319 319 320 320 321 321 321 321 320 320 320 320 320 320 320 321 321 321 320 319 318 318 318 319 319 319 318 318 318
314 312 310 312 312 310 309 310 311 312 311 310 311 312 313 313 312 308 305 305 308 309 309 311 310 306 303 303 303 303 304 305 305 306 305 305 306 306 306 305 306 307 307 307 307 308 308 309 309 309 309 309 309 309 310 313 314 314 314 315 316 317 318 318 319 319 320 320 320 320 320 321 320 320 320 320 320 320 319 319 319 319 319 319 319 319
312 310 309 311 312 309 307 308 310 311 312 311 310 308 307 308 307 306 304 302 303 306 308 311 308 304 302 303 302 302 302 303 302 302 302 303 302 302 303 303 304 305 306 307 307 307 307 308 308 308 307 308 308 308 308 309 310 310 310 310 311 312 312 313 314 315 315 316 316 318 319 320 320 319 319 319 319 319 318 318 318 319 319 319 319 319
310 310 310 310 311 308 306 307 309 310 311 310 305 302 304 305 305 305 304 301 301 303 304 305 303 301 301 302 301 300 300 300 300 299 300 300 300 300 300 301 302 303 304 306 306 306 307 307 307 307 307 307 307 307 307 307 308 308 308 308 309 308 308 308 309 310 311 310 311 312 314 316 317 317 318 319 319 319 319 319 318 318 319 318 318 318
309 308 307 306 307 306 305 307 310 310 308 305 302 301 303 303 303 303 301 300 301 302 302 302 301 300 300 300 299 299 299 298 298 298 298 299 299 299 299 299 300 300 301 303 304 305 306 306 306 306 306 307 307 307 307 307 307 307 307 308 308 307 307 306 307 308 309 309 308 309 309 310 311 312 314 315 316 316 316 317 316 316 316 315 315 315
309 307 305 304 304 305 306 307 309 308 304 302 301 302 302 303 303 304 303 300 300 300 301 301 300 300 300 299 298 298 298 298 298 298 298 298 298 298 298 298 298 299 299 299 300 302 303 303 304 304 304 304 305 306 307 307 307 306 306 307 307 307 307 307 306 307 307 307 307 307 307 307 307 307 309 310 310 310 311 312 313 313 313 312 312 312
309 308 306 305 303 304 307 306 304 305 304 303 303 302 302 303 303 303 303 301 299 299 300 300 300 300 300 299 298 298 298 299 299 299 298 298 298 298 298 298 298 298 298 299 299 299 300 300 301 301 301 301 302 303 304 305 306 306 306 306 306 306 306 306 306 306 306 307 306 306 306 306 306 306 306 307 307 307 308 309 309 311 311 310 309 309
308 309 310 308 303 303 306 306 304 306 307 305 303 301 301 301 300 301 302 301 299 298 299 300 300 300 300 300 300 299 301 302 301 299 298 298 298 298 298 298 298 298 299 299 299 299 299 299 300 300 300 300 300 300 301 301 302 304 305 305 306 306 306 306 306 306 306 306 307 306 306 306 306 306 305 306 306 306 307 307 308 308 308 307 306 306
306 307 308 308 304 304 307 308 307 307 306 303 301 301 300 299 299 301 304 302 299 297 298 299 300 299 299 300 300 301 303 303 301 299 298 298 298 298 298 298 298 298 298 298 299 299 299 299 299 299 299 299 300 300 300 300 301 301 301 302 303 304 304 305 305 306 305 306 306 306 306 306 306 306 306 306 306 306 307 307 307 307 306 305 304 304
305 304 304 306 305 303 306 307 305 304 303 301 300 300 300 298 299 303 306 304 299 297 297 298 299 299 298 298 299 301 302 302 300 298 298 298 298 298 298 298 298 298 298 298 298 298 298 298 298 298 298 299 299 299 299 300 300 300 300 300 301 300 301 303 303 304 305 305 306 306 306 306 306 306 306 306 306 306 306 307 307 307 306 305 304 304
303 302 302 303 303 302 304 306 304 302 301 300 299 299 298 299 301 305 305 301 298 297 297 298 298 298 298 299 300 300 299 299 299 298 298 298 298 297 297 298 297 297 297 297 297 297 297 297 297 297 298 298 298 298 298 298 299 299 299 299 299 299 299 300 300 301 303 304 305 306 306 306 306 306 306 306 306 306 306 306 307 307 307 306 306 306
301 301 301 301 301 300 302 303 303 302 300 298 298 299 299 302 304 303 299 297 297 298 298 297 298 298 298 299 299 299 298 298 298 298 298 298 298 298 297 297 297 297 297 297 297 297 297 297 297 297 297 297 297 297 297 297 297 298 298 298 298 298 298 298 299 299 300 301 303 304 305 306 306 306 306 306 306 306 306 306 306 307 307 307 307 307
300 301 301 300 299 299 300 302 304 303 299 297 299 299 300 302 302 299 297 297 298 298 297 298 298 298 298 298 298 298 298 298 298 298 298 298 298 297 297 297 297 297 297 297 297 296 296 296 296 296 296 296 296 296 296 296 296 296 297 297 297 297 297 298 298 298 299 299 301 302 303 304 305 306 306 307 306 306 306 306 306 306 307 306 307 306
299 300 301 300 299 301 303 302 301 300 298 298 299 300 299 299 298 297 298 299 298 298 298 298 298 298 298 298 298 298 298 297 298 297 297 297 297 297 297 297 297 296 296 296 296 296 296 296 296 296 296 296 296 296 296 296 296 296 296 296 296 296 296 297 297 297 298 298 299 300 301 301 302 303 304 306 306 305 305 305 306 306 306 306 306 305
299 299 300 300 299 300 301 300 298 298 298 298 299 299 298 298 298 298 299 298 298 298 298 298 298 298 298 298 297 297 297 297 297 296 296 296 296 296 296 296 295 295 295 295 295 295 295 295 295 296 296 296 295 296 296 296 296 296 296 296 296 296 296 296 296 296 297 297 297 298 299 300 301 301 302 303 304 304 304 304 305 305 305 306 305 305
298 297 299 300 299 298 299 299 298 299 298 298 298 298 298 298 298 298 298 297 298 298 297 298 298 297 297 297 297 296 296 296 296 296 295 295 295 295 295 295 294 294 294 294 295 295 295 295 295 295 295 295 295 296 296 296 296 296 296 296 296 296 296 296 296 296 296 296 297 297 298 299 300 300 301 301 302 303 303 304 304 304 305 305 305 305
297 296 298 299 298 298 299 299 298 298 298 298 298 298 298 298 298 297 297 298 297 297 297 297 297 296 296 296 296 295 295 295 295 294 294 294 294 294 294 294 294 294 294 294 294 294 294 294 294 295 295 295 295 295 295 295 295 295 295 296 296 296 296 296 296 296 296 296 296 297 297 298 299 300 300 301 301 301 302 303 303 304 304 305 305 305
297 297 298 298 297 297 298 298 297 297 297 297 298 298 298 298 298 297 297 297 297 297 297 296 296 296 296 295 295 294 294 294 293 293 293 293 294 293 293 294 293 293 294 293 293 293 293 293 293 294 294 294 295 295 295 295 295 295 295 295 295 295 295 295 296 296 296 296 296 296 296 297 298 299 300 300 300 301 301 302 303 304 304 304 305 305
297 297 297 297 297 297 297 297 297 297 297 297 297 298 298 297 297 297 297 297 297 296 296 296 295 295 295 294 294 294 293 293 293 293 293 293 293 293 293 293 293 294 293 293 293 292 292 292 292 293 293 293 294 294 295 295 295 295 295 295 295 295 294 295 295 295 296 296 296 296 296 296 297 298 299 300 300 301 301 302 303 304 305 305 304 304
297 297 296 297 298 297 297 298 298 297 298 298 297 297 297 297 297 297 296 296 296 296 295 295 295 294 294 293 293 293 293 293 292 292 293 293 293 293 293 293 293 293 293 292 292 292 292 292 292 292 292 293 293 294 295 296 296 296 295 295 295 295 294 294 294 294 295 295 296 296 296 296 296 296 297 298 299 300 301 301 302 304 304 304 304 304
297 297 297 297 298 298 298 298 298 297 297 298 297 297 297 297 297 296 296 296 295 295 294 294 294 293 293 292 292 292 292 292 292 292 292 292 293 293 293 293 292 293 293 293 293 292 292 293 293 293 293 294 293 294 295 296 296 296 296 295 295 295 295 295 294 294 294 294 295 296 296 296 296 296 296 297 298 298 299 301 302 302 303 303 303 303
Wind_Speed
3 2 2 3 4 4 4 3 2 3 3 3 2 2 2 2 4 3 2 1 1 4 5 6 8 7 5 6 10 14 15 14 13 13 13 12 13 14 16 17 17 16 14 14 19 19 19 19 17 18 20 22 23 22 22 23 21 21 22 22 20 19 17 14 11 9 8 6 4 4 4 3 4 5 5 4 3 1 1 1 2 3 3 4 3 3
2 3 3 5 4 3 3 4 4 3 3 2 2 2 2 3 4 2 1 2 1 4 2 2 7 4 1 4 9 12 13 12 13 14 13 13 13 14 15 17 16 14 12 15 20 19 19 21 19 20 21 23 25 25 23 23 21 21 21 21 19 17 15 12 8 6 6 5 4 3 3 3 4 5 5 4 3 2 2 3 4 4 4 5 4 3
2 4 5 5 3 5 4 3 4 3 2 2 1 1 2 2 3 2 0 3 1 3 2 2 6 1 3 2 7 9 9 9 12 13 11 12 14 14 14 15 15 14 12 14 18 20 20 20 19 21 22 24 26 25 23 22 21 20 20 20 18 16 13 10 8 6 5 4 4 2 2 3 4 5 5 5 5 5 4 4 5 5 5 5 4 4
3 4 4 4 7 6 4 3 4 3 2 2 2 2 2 1 1 1 1 2 2 1 1 4 4 2 4 2 3 2 2 4 8 10 11 12 14 14 13 14 14 15 14 13 17 21 21 20 20 21 23 25 26 25 24 21 20 19 19 19 18 16 13 10 8 7 6 5 5 2 2 3 5 6 6 6 6 6 5 5 5 5 5 5 4 4
4 1 3 6 6 5 4 3 5 4 2 2 3 5 3 1 3 2 1 1 1 1 2 5 4 2 2 4 4 1 2 4 5 7 11 13 15 14 13 14 15 15 14 13 17 22 22 21 21 22 24 26 27 26 23 20 18 17 17 18 18 16 14 11 8 8 8 7 5 1 3 4 5 6 7 6 6 7 6 6 6 6 5 5 4 4
4 2 6 6 3 4 4 3 5 5 3 2 5 9 7 4 3 3 2 1 3 2 2 1 3 3 2 3 6 4 3 4 4 6 11 13 16 16 15 17 16 14 14 14 17 22 23 21 22 23 25 26 27 25 22 20 18 16 16 17 18 17 15 13 10 9 9 7 4 1 4 5 6 6 7 6 6 7 7 7 7 7 7 7 6 5
2 3 4 3 3 5 4 3 5 6 4 2 4 8 8 5 2 2 2 2 2 2 1 1 1 3 3 2 5 5 7 7 5 7 12 15 17 18 18 18 17 15 14 14 19 23 23 22 23 24 25 25 24 23 22 20 17 16 16 17 19 19 17 15 13 11 9 8 4 2 3 3 5 6 6 6 6 7 7 7 6 6 7 7 7 6
3 4 2 2 3 3 4 3 5 8 6 2 1 5 8 6 5 4 2 1 0 0 1 1 1 2 3 2 2 3 6 8 7 8 10 14 17 18 19 19 17 17 15 15 20 25 24 23 22 23 24 23 22 22 22 21 17 15 16 18 19 20 18 16 14 12 10 8 6 4 2 2 4 5 5 6 6 6 6 6 5 5 6 7 7 7
3 4 4 4 3 2 4 3 7 11 5 1 2 4 6 4 3 3 2 1 1 1 3 1 3 1 3 2 2 3 6 8 9 9 10 12 15 16 18 19 18 17 15 14 18 24 24 23 21 21 22 22 21 21 21 22 19 15 16 18 19 19 19 18 16 13 11 9 7 5 3 1 4 5 5 5 6 6 6 6 5 5 5 7 8 9
1 4 5 5 3 3 3 1 7 10 3 1 5 6 5 4 3 2 1 2 1 2 3 2 4 2 3 1 2 3 4 5 6 6 7 9 13 16 18 20 20 19 18 16 17 21 23 23 20 19 20 22 22 21 21 22 21 18 17 18 19 19 19 19 17 13 11 10 8 6 4 2 4 5 5 5 5 6 5 6 6 6 6 7 9 10
1 1 2 3 3 2 3 3 2 2 3 5 5 5 5 3 2 1 2 2 1 2 1 2 5 2 3 1 1 2 2 0 3 3 3 5 10 14 18 20 20 21 20 18 17 19 21 22 20 18 19 21 21 22 21 21 20 18 18 19 20 20 19 18 15 12 12 11 10 8 5 3 5 6 5 5 5 5 5 6 7 7 7 8 10 11
2 1 1 2 3 4 5 5 3 2 3 4 2 3 3 1 1 1 1 0 3 3 1 2 3 2 3 2 1 2 1 2 4 5 4 5 7 10 14 18 19 19 19 18 17 18 20 22 20 19 19 20 21 22 21 20 18 18 20 20 19 18 16 15 13 12 12 12 11 9 6 4 6 5 4 4 4 5 5 7 7 7 7 8 9 11
2 4 2 2 3 5 4 4 3 1 1 2 2 3 3 1 1 2 1 2 3 1 1 2 1 1 2 1 2 4 5 5 5 6 8 9 8 7 9 13 16 17 16 16 16 17 18 19 19 19 19 21 22 22 21 18 18 20 19 16 13 13 13 14 13 13 14 15 12 10 7 5 5 5 4 4 4 5 6 7 7 7 8 8 9 10
2 2 1 1 2 5 6 4 4 3 3 4 4 4 4 3 2 2 1 1 2 1 1 1 1 1 1 1 2 5 6 7 7 6 8 9 8 4 4 10 13 14 14 14 14 14 13 13 15 17 19 21 21 22 21 17 19 20 16 12 12 12 12 13 15 15 15 15 12 10 8 5 5 5 5 3 4 6 7 7 7 7 8 8 8 9
3 2 2 3 1 4 7 5 3 4 4 3 1 2 4 4 3 3 3 2 3 1 2 1 1 2 2 1 3 5 6 6 6 5 2 1 1 5 9 10 12 14 14 14 14 14 13 10 8 10 16 20 20 21 16 13 17 17 14 15 16 13 13 15 15 16 16 15 12 10 9 7 6 5 5 5 5 6 7 7 8 7 8 8 8 8
1 3 2 2 1 2 4 3 3 4 4 1 1 1 2 3 3 1 0 0 1 1 1 2 1 1 0 1 4 4 4 5 5 3 4 7 10 12 14 14 14 15 15 15 15 15 14 12 6 4 13 18 18 17 9 15 11 13 14 17 17 11 11 14 15 16 15 14 13 12 11 10 8 7 7 7 7 7 8 8 8 7 8 8 7 7
1 2 1 1 0 1 2 2 3 1 2 3 2 3 1 0 3 3 2 2 1 2 2 1 1 1 1 2 2 1 2 4 4 3 5 8 12 15 16 17 16 15 15 15 15 13 11 10 8 6 12 16 14 11 7 7 6 11 13 18 19 12 9 11 14 16 16 16 15 13 12 11 10 9 9 10 10 9 9 9 8 8 8 8 7 6
2 1 1 0 2 2 2 4 5 4 1 3 3 5 3 2 3 2 2 2 0 3 2 1 0 2 3 2 3 4 5 5 4 3 5 6 10 13 14 16 18 18 18 18 17 14 10 8 10 9 9 11 11 11 10 9 10 10 11 16 19 14 9 10 14 17 18 18 16 14 14 14 12 10 9 11 12 11 12 10 8 5 5 6 7 6
2 2 1 1 1 2 2 3 5 4 4 1 2 5 3 2 2 2 2 3 4 3 1 2 0 2 4 1 2 5 6 7 6 5 5 5 6 7 8 13 17 19 20 21 19 16 11 8 9 6 4 8 10 12 13 14 12 10 9 12 17 14 10 11 15 18 19 18 16 16 16 15 13 11 10 13 14 13 13 10 6 4 4 6 7 6
1 2 1 0 1 1 1 1 3 3 4 3 3 4 1 1 2 2 1 1 4 4 1 2 2 3 3 1 2 1 3 6 7 5 4 4 4 5 6 11 16 19 19 20 19 17 14 10 9 7 2 9 11 10 14 15 13 9 8 10 13 12 10 11 15 18 19 18 18 18 16 14 14 13 11 14 17 15 13 11 8 7 9 9 7 6
2 1 2 0 1 2 1 0 2 3 3 2 4 3 1 1 0 1 1 1 1 3 2 3 3 2 1 2 4 4 3 2 5 5 3 3 3 4 6 9 15 19 17 17 18 15 13 11 8 7 5 10 13 10 12 14 11 7 5 6 8 8 8 11 14 18 19 19 19 19 17 15 15 15 13 16 19 16 15 14 10 9 12 12 9 8
1 2 2 1 0 2 1 2 2 2 2 2 3 3 3 3 3 3 3 1 0 1 2 3 3 2 2 2 5 5 3 2 2 5 5 4 5 6 4 5 12 17 15 13 14 12 10 8 7 6 6 8 8 6 7 9 6 3 3 5 7 8 9 11 13 16 17 18 18 19 18 16 15 16 15 17 19 17 17 15 11 12 15 13 10 9
1 2 2 1 0 0 1 1 1 1 1 1 1 1 2 2 3 3 4 3 2 1 1 1 2 2 3 5 5 5 4 3 3 6 8 7 8 8 6 7 12 16 15 13 13 13 11 10 9 8 6 5 5 4 5 5 6 7 7 7 8 8 10 11 11 13 14 14 15 17 17 16 16 17 16 17 19 17 17 16 13 13 14 13 11 10
1 1 2 2 1 1 0 1 1 1 2 2 3 2 1 1 1 1 1 2 3 3 2 2 3 3 3 5 6 6 4 2 3 8 11 10 11 11 10 13 16 17 16 15 15 15 14 13 12 12 11 10 9 8 8 8 9 10 9 8 7 7 7 9 9 10 11 11 13 14 14 14 16 17 17 18 19 17 16 16 15 14 14 14 13 12
1 1 1 3 3 1 1 2 2 1 1 1 2 2 1 2 4 3 2 2 3 2 2 3 3 3 3 4 7 8 7 7 7 7 10 11 11 11 13 16 18 18 18 17 16 15 14 14 13 12 12 11 10 8 7 7 7 7 7 6 5 5 5 6 6 7 8 9 12 13 14 14 17 18 17 18 19 18 17 16 16 16 16 16 15 15
2 0 1 2 5 4 4 2 1 1 1 1 2 2 2 1 2 3 3 2 4 3 2 2 2 4 3 6 9 9 7 8 8 8 10 10 10 10 12 15 17 17 16 16 15 15 14 13 13 12 12 11 9 8 7 6 5 5 4 4 4 4 4 4 5 5 7 9 11 14 14 15 17 19 19 19 21 20 19 18 17 17 17 16 16 16
2 2 3 3 2 1 1 1 3 1 1 1 2 4 5 4 3 1 3 3 3 4 3 1 1 6 3 6 8 8 8 6 7 8 10 11 12 12 13 15 15 15 14 13 13 13 13 12 11 11 11 10 10 9 7 7 7 6 6 5 4 3 3 3 4 5 5 7 10 12 14 14 15 16 18 19 20 21 21 19 17 18 18 17 17 18
3 2 3 6 7 5 3 3 4 4 5 5 4 4 5 5 4 1 3 2 2 4 4 1 2 5 3 6 7 6 7 5 6 8 9 11 14 15 15 15 16 14 13 12 12 11 11 11 11 11 10 9 9 8 8 8 8 8 8 7 6 5 4 3 2 3 3 4 6 8 10 11 11 12 12 14 14 15 18 19 18 18 18 17 18 19
4 2 1 3 6 7 7 7 8 8 7 6 7 6 6 7 5 4 4 2 0 1 2 4 5 4 4 4 5 6 6 5 6 7 9 13 17 18 18 18 18 17 15 14 13 12 11 10 10 11 10 10 9 8 7 7 7 8 7 7 7 7 6 6 4 2 1 1 2 5 7 8 8 7 8 10 12 12 13 16 18 19 19 18 17 19
3 2 2 3 5 6 8 7 7 9 7 6 8 7 6 7 8 8 5 3 5 6 5 8 10 8 4 4 5 5 4 4 7 11 13 16 18 21 23 23 22 21 19 18 17 15 14 13 12 11 10 10 9 9 8 8 8 8 7 7 7 7 6 6 5 4 3 2 1 1 3 4 5 5 5 8 11 12 12 14 17 20 20 19 17 18
2 3 4 4 4 3 6 6 6 8 8 6 5 5 5 6 6 6 5 4 6 8 6 8 10 8 4 5 5 5 4 8 12 15 16 15 17 23 25 24 24 23 23 22 20 19 17 16 14 13 12 11 10 10 10 10 9 9 8 8 7 7 6 5 5 5 4 3 2 1 1 2 3 5 6 7 10 12 13 14 15 18 19 20 19 19
2 4 3 3 3 2 2 3 5 7 7 4 2 3 5 4 3 4 4 3 2 4 7 7 6 5 3 5 6 7 10 14 15 16 16 17 20 24 25 25 25 24 23 22 20 19 17 16 15 15 15 14 12 10 10 10 9 8 8 7 7 7 6 5 5 4 3 2 1 1 2 3 5 6 7 9 11 13 14 15 15 16 18 19 18 18
1 5 5 3 4 3 1 2 3 4 3 3 2 1 2 2 2 3 4 5 5 0 3 3 4 5 4 4 6 10 13 15 15 15 16 18 22 26 27 26 25 23 22 20 19 19 18 16 15 13 13 13 12 11 11 9 7 8 8 8 7 6 6 5 5 4 3 2 1 1 3 4 6 7 8 9 11 12 14 16 16 16 18 19 19 18
2 5 4 2 3 3 3 4 4 2 2 1 3 2 2 1 4 5 4 6 6 3 3 6 7 7 6 5 8 11 12 13 14 16 18 20 22 25 26 26 25 22 21 19 17 16 16 15 14 12 10 10 10 10 9 8 7 7 6 6 5 5 4 4 4 3 3 3 2 2 2 3 4 6 7 8 8 10 12 14 16 17 18 19 18 17
2 4 2 2 2 3 4 5 5 3 2 2 5 2 1 4 9 12 10 9 8 6 8 11 10 9 9 10 12 14 15 16 18 20 22 23 23 24 24 24 23 22 20 19 16 14 13 12 11 10 9 8 7 5 5 4 4 4 3 2 1 1 1 1 1 1 1 2 3 3 3 2 1 3 4 5 5 6 8 10 11 12 12 11 10 10
2 2 2 2 2 3 4 4 3 1 1 2 3 2 3 4 5 8 10 9 8 6 6 11 11 10 11 12 12 15 17 20 21 21 20 21 21 21 21 21 20 19 18 18 16 15 12 11 10 10 9 8 7 5 4 3 3 4 4 2 2 3 3 3 3 3 4 4 4 4 4 4 4 4 3 4 4 4 5 6 7 7 6 6 6 7
2 2 2 2 1 2 3 2 0 1 1 2 3 1 0 1 0 1 4 5 5 5 3 8 9 8 8 9 10 12 13 14 14 14 16 16 17 17 17 16 15 14 14 13 13 12 11 9 9 8 8 8 8 7 7 5 5 5 5 5 5 4 5 5 6 6 8 8 7 7 6 5 6 6 6 7 8 7 6 6 6 6 6 6 6 6
3 2 1 1 0 1 3 3 1 1 2 3 4 1 1 1 2 2 2 4 3 4 2 5 6 5 5 5 7 6 5 6 6 7 10 12 12 11 12 12 11 11 11 10 9 8 7 7 6 6 7 7 7 7 7 7 7 7 6 6 7 7 6 6 6 7 9 9 8 8 8 7 7 7 7 8 8 8 7 7 7 7 7 6 6 6
6 3 2 2 1 1 2 3 3 2 0 1 1 1 3 3 3 3 2 3 2 2 2 5 5 4 3 3 4 5 3 2 4 3 6 9 9 9 9 9 9 9 9 9 9 8 8 8 8 8 8 8 9 9 9 8 8 8 8 8 7 8 9 10 9 9 10 10 9 9 10 10 9 8 8 7 7 7 7 7 7 7 7 7 8 8
5 3 2 2 2 2 2 1 2 2 0 2 2 4 6 3 3 5 4 4 3 2 4 7 7 7 7 7 6 3 1 2 4 2 4 6 7 7 8 8 9 9 10 10 10 10 10 11 11 12 12 12 13 13 13 13 13 12 12 11 10 10 11 12 12 12 12 11 11 11 11 11 11 10 9 9 9 9 9 9 9 8 8 8 9 10
3 2 1 2 2 2 2 2 0 1 1 1 4 6 4 1 4 4 2 4 6 5 8 10 10 10 11 10 8 6 5 5 5 2 2 4 5 6 7 9 9 10 11 12 12 12 13 13 14 14 15 15 16 16 17 18 18 17 17 17 15 15 15 15 15 14 14 13 14 15 15 15 14 13 12 11 11 11 11 12 12 11 11 11 12 12
2 2 2 1 2 1 2 2 1 0 1 2 5 4 2 2 3 2 4 8 9 8 10 10 10 10 11 11 10 8 6 4 2 1 3 6 7 8 10 11 12 12 13 14 15 16 16 17 17 18 18 18 19 19 20 21 22 22 22 21 20 19 20 20 19 18 18 17 17 18 19 20 20 18 17 16 16 16 16 16 15 14 14 14 14 14
2 1 1 1 1 1 2 2 1 2 1 5 4 1 2 1 4 8 9 10 10 10 10 10 9 8 8 8 8 6 4 2 3 4 7 9 11 12 14 15 16 17 18 18 19 20 21 21 21 22 22 21 22 22 23 24 25 25 25 24 23 23 23 23 23 23 23 22 21 20 20 22 23 24 24 23 23 22 22 22 22 23 23 22 20 18
3 2 1 1 1 0 1 2 1 0 4 5 2 2 5 7 11 13 10 9 10 9 8 8 8 7 6 7 6 6 5 6 7 9 11 13 14 16 17 18 19 20 21 22 22 23 24 24 25 25 25 24 24 24 25 25 26 27 28 27 26 26 26 26 26 26 26 26 26 26 24 23 23 24 25 26 25 24 23 23 24 26 27 27 27 25
3 2 2 2 2 2 3 3 2 2 5 7 9 11 12 13 13 11 9 10 9 7 7 7 6 6 6 6 7 8 9 10 12 13 15 16 17 19 20 20 21 22 22 23 23 24 24 25 25 25 25 25 25 25 25 26 27 29 29 29 28 28 29 28 28 28 28 28 28 29 29 28 26 24 24 25 25 25 24 23 23 23 25 26 28 28
2 1 1 3 4 5 6 6 3 3 6 11 14 13 12 12 10 8 8 8 8 6 5 5 5 5 7 8 9 10 11 13 15 16 17 18 19 19 20 21 21 22 22 23 23 23 24 24 25 25 25 24 24 24 25 26 27 29 30 30 30 30 30 30 30 30 29 29 29 30 30 30 30 28 26 26 26 26 27 27 26 25 25 27 28 27
2 2 2 3 3 2 3 3 2 3 5 8 10 10 10 9 8 6 6 6 5 4 4 4 5 7 9 10 11 12 13 14 15 16 16 17 17 18 19 20 21 22 22 23 23 24 24 24 24 25 25 25 25 24 25 25 26 28 29 30 31 31 32 32 32 32 32 31 30 30 31 31 30 29 28 27 27 27 29 30 30 29 28 28 29 28
2 3 3 3 2 2 3 4 3 3 4 5 7 9 9 8 7 6 5 4 3 2 3 5 6 8 10 11 11 11 11 11 13 15 16 17 18 19 21 21 22 23 23 23 22 22 21 20 20 21 23 24 24 24 24 25 25 26 27 29 30 31 32 33 34 35 35 34 33 32 32 32 31 30 28 27 26 26 27 29 31 32 31 31 31 29
1 1 2 2 3 4 3 4 5 4 3 4 6 8 8 7 5 4 3 2 1 2 4 6 7 9 9 9 9 9 10 11 13 16 17 18 19 21 21 22 21 21 20 18 17 16 15 15 15 17 17 18 19 19 18 18 19 19 21 22 24 26 29 31 33 35 36 37 36 35 34 33 33 32 31 29 26 24 24 26 29 31 33 32 32 29
0 2 3 3 4 3 2 6 9 4 2 6 9 8 7 5 4 3 2 0 2 3 5 6 7 7 7 7 7 9 10 12 15 16 17 18 19 19 18 17 17 16 15 14 13 13 13 12 12 12 12 13 14 15 16 17 18 18 18 19 19 21 23 26 29 32 35 37 38 38 36 34 33 33 32 31 29 26 23 23 26 30 32 33 32 30
1 4 3 2 3 1 3 12 13 3 3 7 12 9 6 5 3 2 1 2 3 4 5 6 5 4 4 5 7 9 11 13 14 16 17 17 16 14 13 13 13 13 13 13 13 13 13 12 11 12 13 14 16 17 18 20 21 21 21 21 21 22 23 24 26 28 31 34 37 39 37 34 33 32 31 31 30 28 25 23 24 27 30 32 33 32
Wind_Direction
178 170 178 196 196 195 197 189 152 114 117 126 133 178 224 242 257 254 244 310 189 217 226 205 217 223 189 180 183 181 185 193 196 194 196 196 195 203 205 206 210 212 213 211 212 213 208 207 197 183 188 194 194 193 188 184 184 185 185 184 186 185 183 181 176 172 169 156 137 127 110 91 84 83 90 96 97 96 333 318 333 342 349 3 21 26
177 189 215 219 202 177 164 145 125 119 112 123 169 230 247 224 254 266 159 2 248 214 237 188 211 221 167 186 184 184 190 198 202 200 200 200 203 209 208 210 211 210 213 213 212 214 212 210 203 191 195 203 201 197 193 187 186 189 189 187 187 186 183 176 168 167 158 142 133 121 86 72 80 79 80 76 66 59 32 25 32 34 32 31 36 34
196 215 228 212 147 99 104 131 139 133 126 129 168 244 244 212 257 276 125 14 33 211 248 168 193 164 51 178 183 190 204 204 205 207 205 203 209 216 215 214 214 213 214 214 213 214 214 213 209 201 201 207 207 204 199 191 190 195 192 189 191 190 185 174 166 164 154 153 161 137 60 49 67 66 65 62 55 56 53 47 49 48 42 36 31 22
197 236 235 168 140 125 113 129 136 125 155 180 178 221 229 194 248 206 122 29 39 276 245 145 153 66 68 139 174 194 189 163 183 199 205 210 218 222 220 218 216 217 218 216 215 216 215 214 212 208 205 207 208 208 206 199 197 200 195 192 194 194 191 184 174 172 168 173 181 161 56 40 53 59 61 60 59 61 61 55 56 56 49 44 38 26
221 275 104 125 145 155 131 137 163 168 197 217 213 221 229 205 225 242 360 341 167 69 69 123 131 85 101 170 192 168 81 122 152 185 201 216 228 228 224 223 220 220 221 219 219 218 217 216 213 210 207 207 208 209 209 207 205 204 199 198 198 197 197 195 191 189 184 181 187 162 48 49 54 61 60 53 50 52 49 44 49 62 70 70 67 56
245 172 137 128 131 160 149 166 194 191 196 232 218 217 223 214 218 259 321 240 181 126 69 116 168 143 100 191 192 181 184 178 166 199 211 218 228 228 224 224 221 221 222 221 222 221 221 220 214 210 208 209 209 209 209 210 212 211 206 205 203 200 202 203 204 205 196 188 189 66 60 72 72 67 60 50 40 37 35 33 41 57 69 73 71 67
236 138 151 149 141 168 184 214 209 190 187 231 215 205 208 204 208 244 242 208 186 131 94 313 222 152 120 171 185 184 198 196 183 207 218 218 223 226 225 224 222 221 223 220 221 223 226 225 218 211 209 211 213 211 211 210 213 215 213 212 208 204 205 207 210 212 200 186 178 140 110 98 84 75 65 55 40 30 26 26 38 55 65 68 66 67
148 127 118 126 128 157 194 225 201 182 183 206 174 167 174 187 203 205 197 182 165 56 143 356 319 161 131 139 182 186 192 199 205 209 213 215 220 224 223 222 221 220 221 219 218 220 227 228 221 214 211 214 216 216 215 212 208 213 218 217 211 207 208 211 214 214 203 190 176 165 161 108 82 76 66 57 42 29 24 26 36 54 67 68 67 74
136 169 172 151 133 178 206 222 177 176 191 269 128 132 145 158 174 174 156 116 60 231 180 68 356 195 144 110 161 178 189 205 216 216 213 212 216 221 221 219 217 218 219 219 217 217 225 231 224 217 216 219 221 220 219 215 211 217 223 217 209 206 208 211 215 213 208 195 174 172 194 132 84 75 63 55 43 30 29 32 32 45 63 66 72 85
111 205 184 159 179 218 219 215 171 179 194 147 134 104 96 94 83 97 125 111 92 233 192 37 350 221 165 107 134 167 185 204 221 225 223 219 218 220 224 223 219 222 227 228 227 223 226 233 230 221 221 224 227 226 222 218 217 221 221 210 203 202 203 206 210 213 211 195 171 176 202 170 98 77 59 49 43 34 32 38 41 47 56 66 80 93
360 243 184 187 214 176 113 77 136 169 121 147 144 101 95 79 57 59 38 73 175 213 175 6 338 281 185 175 185 175 151 275 282 265 257 247 235 226 227 228 224 225 228 229 231 229 227 232 233 228 226 227 228 228 225 220 218 220 215 206 199 197 198 203 208 214 212 193 175 179 193 162 112 87 68 55 48 41 41 49 54 56 59 70 87 98
336 231 222 225 195 132 105 87 54 35 115 154 147 121 134 72 41 109 42 119 198 190 83 360 328 275 206 180 231 271 338 345 299 281 291 281 257 238 230 228 225 223 222 223 225 226 225 227 229 230 230 229 228 228 229 225 221 219 212 204 200 196 198 206 214 218 210 196 183 182 181 151 123 103 89 75 61 59 62 63 65 68 69 74 89 100
260 225 281 298 191 169 139 100 95 77 144 170 128 144 171 158 171 205 195 204 213 188 52 340 306 245 238 278 299 298 328 344 315 289 282 276 271 263 236 223 221 218 216 217 217 220 222 222 225 228 228 231 232 232 235 228 215 210 203 196 199 203 208 216 224 225 211 200 191 188 187 161 130 112 103 97 83 81 81 80 80 81 79 78 90 103
231 245 297 255 200 189 184 160 156 173 185 186 160 162 181 156 163 202 180 219 248 193 76 329 284 202 204 308 277 295 328 341 329 306 281 273 275 271 203 199 201 199 198 199 199 202 207 211 221 224 225 231 233 236 238 222 207 207 200 199 213 221 230 232 233 231 215 204 199 197 198 180 142 117 114 126 112 100 97 93 93 92 89 85 90 104
209 236 200 196 176 176 190 191 157 141 157 181 148 157 181 169 180 212 201 199 207 146 96 160 214 182 158 69 321 312 337 357 354 344 333 324 109 115 127 148 162 168 173 176 176 180 184 186 203 226 235 234 230 239 234 183 187 210 205 211 229 244 252 244 237 232 219 210 209 210 210 196 172 144 139 157 144 124 117 110 106 102 98 94 94 104
214 255 253 278 323 175 197 183 107 116 135 129 76 153 187 185 155 139 163 156 167 137 120 174 218 272 210 325 318 320 2 25 23 30 77 97 108 110 113 121 132 145 154 160 168 176 178 175 170 245 256 245 235 239 203 135 169 220 211 214 228 241 243 235 233 232 223 219 221 221 218 206 189 168 163 175 168 151 141 126 117 112 108 106 104 106
164 255 296 342 25 272 263 163 110 168 162 131 170 180 174 91 112 118 122 50 23 205 173 149 197 191 212 228 222 200 77 61 52 76 101 113 121 119 120 128 137 151 159 163 168 166 166 171 167 199 248 253 250 245 192 147 214 227 216 221 220 215 215 213 219 224 224 229 234 231 226 216 200 182 177 180 177 170 157 133 115 114 117 118 115 111
198 234 330 37 119 30 353 121 88 27 86 145 181 163 136 80 80 113 159 89 141 214 178 113 152 180 197 178 159 170 153 125 115 118 122 131 134 128 129 138 145 153 155 154 151 146 156 175 165 178 239 268 280 270 240 233 238 219 220 226 215 213 220 210 212 219 226 236 240 239 241 234 217 197 186 183 181 177 162 136 108 102 121 137 135 123
202 235 311 272 177 32 8 130 113 52 29 26 149 133 133 192 163 158 166 148 183 202 167 148 194 232 211 186 150 180 156 131 130 133 135 130 118 107 110 127 138 144 145 143 139 137 146 157 149 159 274 306 296 269 241 238 243 232 228 220 211 217 227 219 220 223 229 237 241 242 244 239 224 207 195 188 184 181 171 156 138 144 176 174 157 139
141 239 233 191 322 355 360 206 177 130 56 51 116 116 39 283 178 173 154 168 189 190 165 159 190 227 206 327 309 228 113 125 144 143 137 118 88 85 104 123 135 141 141 137 135 132 135 138 139 145 272 308 297 264 233 237 250 247 230 215 214 223 224 217 219 221 228 237 242 242 239 234 223 210 203 194 188 187 188 183 172 177 190 187 176 166
101 212 218 309 324 218 185 333 233 181 125 127 151 154 136 86 100 173 113 38 190 174 166 170 193 205 111 5 300 311 24 129 159 146 129 98 83 113 137 139 139 141 141 138 136 138 140 143 148 155 203 274 283 265 235 238 249 248 232 208 205 215 216 212 214 220 229 237 241 241 239 235 224 213 207 199 193 193 198 196 189 194 199 193 190 188
138 171 191 199 201 188 91 22 290 236 193 182 177 174 155 130 148 170 164 154 351 161 169 179 188 161 65 354 302 306 319 288 199 146 126 106 104 118 143 153 140 139 142 139 134 134 137 143 154 170 205 243 257 250 230 227 226 204 168 170 183 195 201 207 215 222 229 234 238 239 239 237 226 215 209 203 200 200 203 203 198 200 202 198 197 197
123 122 133 115 96 172 40 37 251 206 134 124 66 122 149 137 150 175 188 175 143 133 144 176 188 142 46 358 330 317 310 291 226 151 127 116 119 121 130 136 130 131 133 127 120 117 118 120 121 127 138 150 145 138 148 153 142 130 135 158 176 180 182 191 205 213 219 227 234 238 238 233 223 215 210 205 204 206 208 206 197 196 203 201 201 202
134 92 92 114 82 333 241 177 191 122 120 103 54 54 146 136 103 140 174 155 154 159 145 175 193 137 49 4 357 356 14 64 140 136 127 126 128 128 130 127 123 121 118 113 110 108 107 106 104 107 110 109 109 110 115 118 117 119 130 147 160 165 171 180 193 202 208 218 229 237 238 229 219 216 215 211 209 210 211 206 201 202 205 205 208 209
360 338 56 129 139 140 168 188 200 152 85 75 57 360 327 98 106 121 102 124 174 182 163 191 192 127 67 21 22 22 46 78 84 101 115 120 122 125 124 122 121 119 117 117 116 113 110 107 104 105 107 106 104 102 101 100 102 110 122 137 152 163 170 181 196 205 208 212 220 229 234 229 220 220 223 220 219 220 217 212 210 208 205 208 214 217
84 49 328 171 172 180 174 177 200 155 124 85 69 9 359 74 134 139 132 174 191 174 170 208 171 125 88 26 26 23 35 61 62 67 83 89 94 103 105 109 113 114 114 117 116 115 113 109 108 110 112 111 108 106 102 99 102 108 117 130 148 160 171 192 210 218 220 219 218 220 224 227 225 227 232 232 233 235 229 220 217 216 215 217 220 223
100 80 16 30 99 143 156 360 320 303 112 75 51 24 6 335 305 121 135 176 177 150 163 241 122 138 112 15 14 16 21 41 48 49 61 73 81 88 91 96 100 98 100 103 104 107 107 104 103 106 111 115 115 119 121 120 121 120 117 115 116 128 155 187 205 213 219 221 221 217 216 221 226 230 236 239 241 240 230 220 219 225 228 228 226 227
94 60 21 35 57 60 53 40 16 37 68 53 27 7 357 341 319 5 110 122 133 149 170 190 114 137 97 14 5 8 10 26 40 39 53 71 84 91 91 90 89 84 83 85 86 90 93 93 91 91 97 104 107 114 118 117 120 119 116 111 102 98 100 108 154 195 203 211 215 210 208 213 221 228 234 235 233 230 224 221 223 228 232 233 233 233
115 81 7 40 60 55 44 42 46 62 80 66 45 26 3 5 27 61 58 12 12 142 149 126 111 97 62 18 8 11 9 26 44 51 71 83 90 93 89 84 80 74 73 74 73 76 79 81 81 80 84 88 89 92 96 99 104 107 107 107 100 97 99 101 107 123 163 205 212 201 201 207 216 229 236 228 221 221 223 225 227 229 232 235 238 240
120 127 147 114 69 29 11 13 33 53 65 55 46 40 26 33 54 68 61 51 79 78 78 102 99 81 43 5 14 18 19 54 66 67 73 78 84 88 85 80 77 74 74 74 73 73 74 73 72 71 74 78 76 74 74 75 79 83 88 91 89 89 94 96 92 89 92 87 58 198 204 206 213 225 233 228 226 229 231 232 231 232 234 236 238 241
103 154 170 127 87 9 341 348 15 45 53 46 34 21 21 39 52 60 60 54 76 88 95 96 91 80 45 28 39 42 49 66 67 63 61 61 71 81 80 75 75 76 77 78 77 78 79 78 76 73 71 70 67 66 68 67 66 67 71 75 76 79 84 88 89 86 86 90 81 75 173 215 229 234 237 238 237 237 237 235 234 235 237 239 242 243
67 127 154 124 129 185 292 347 14 39 40 19 355 360 8 19 39 57 60 17 18 123 131 112 94 92 82 68 65 61 63 66 62 58 60 60 66 75 76 72 74 76 77 79 79 80 80 79 78 76 74 72 68 66 67 69 73 77 77 76 76 77 79 81 83 84 81 80 86 209 215 222 232 239 243 243 241 239 239 238 236 236 237 240 243 244
103 146 151 142 157 165 117 83 61 49 25 308 289 50 31 44 96 85 52 22 359 317 152 121 112 118 118 105 85 68 62 63 59 57 63 67 70 75 76 74 74 74 75 76 76 76 76 74 73 73 73 72 68 63 59 58 69 80 83 86 88 87 87 85 85 90 94 91 98 251 245 240 241 245 248 245 239 235 234 235 235 235 234 236 238 239
129 147 146 137 149 139 108 115 114 130 186 271 337 292 261 100 105 100 61 25 16 27 80 92 107 116 115 107 95 84 74 68 65 66 70 73 75 75 75 75 75 73 73 73 73 74 74 72 73 74 75 75 72 67 63 56 55 61 67 78 86 88 90 88 88 99 109 118 139 178 219 242 253 259 260 253 243 236 234 236 239 238 234 230 229 232
113 120 119 85 100 120 125 129 136 176 222 348 358 333 171 116 105 97 78 45 35 60 92 99 106 112 111 105 99 96 91 82 75 71 71 73 75 74 73 71 71 72 72 71 72 74 72 69 69 70 71 69 66 69 74 66 49 34 25 31 48 56 68 80 100 132 155 159 153 156 176 195 225 265 268 264 254 243 237 238 239 239 234 224 215 218
102 111 110 73 73 129 147 155 161 184 333 12 36 62 94 113 112 93 74 47 25 28 87 106 111 115 115 112 108 103 97 87 77 68 66 69 70 70 69 65 63 65 66 66 67 68 67 62 55 52 49 42 33 25 12 359 351 348 343 325 296 291 293 289 272 253 250 247 239 239 240 231 220 216 223 231 231 226 231 235 231 227 222 206 192 194
111 119 112 80 55 143 134 133 86 349 302 157 137 128 73 91 360 73 81 65 28 4 62 111 119 125 128 129 126 116 102 90 78 61 55 59 63 64 64 62 59 58 57 58 60 60 61 58 51 46 41 34 26 17 9 357 336 321 314 303 293 292 296 297 294 285 277 272 265 262 267 262 247 240 238 241 242 236 229 227 220 209 203 199 200 207
70 53 84 120 60 82 105 116 126 255 218 166 133 107 23 360 272 248 130 99 52 6 42 118 122 125 138 157 166 158 123 92 85 56 39 43 50 54 55 52 48 43 39 38 37 35 33 30 23 17 12 8 1 356 354 350 342 330 318 305 293 286 286 288 291 292 287 280 269 261 262 264 263 261 253 243 238 234 224 212 203 200 203 212 221 226
63 50 66 104 96 104 122 145 181 191 180 74 100 23 336 311 244 217 161 125 94 19 96 119 107 95 99 118 154 182 201 127 109 68 23 24 29 31 32 31 28 23 18 11 4 357 352 348 343 339 335 329 323 320 319 320 323 323 320 315 307 298 290 282 279 281 280 274 265 255 252 251 247 246 242 228 217 218 222 218 211 210 213 212 209 209
51 39 61 115 131 146 139 147 215 206 46 8 331 323 328 317 190 190 187 155 140 120 112 105 88 73 72 83 97 101 38 90 106 75 10 11 13 9 6 6 2 357 353 348 340 336 333 328 324 321 318 315 311 308 305 301 299 298 299 300 302 304 298 288 282 279 271 261 248 235 231 230 222 217 219 218 215 218 225 227 223 221 218 208 203 207
41 28 38 120 118 128 149 141 148 237 185 274 304 323 337 154 172 201 190 131 127 124 108 96 86 79 77 79 83 74 61 78 93 79 353 347 350 348 347 348 344 338 335 330 325 322 319 315 314 313 311 310 308 304 302 299 296 294 291 288 288 292 291 288 285 280 272 260 246 236 233 230 222 213 210 215 220 223 224 224 223 226 225 219 219 224
36 39 44 81 87 90 126 117 94 157 109 330 313 328 9 175 187 160 114 116 121 121 110 98 91 86 81 79 82 87 93 95 81 360 331 334 335 334 331 329 327 323 320 317 315 313 311 308 306 305 303 302 302 300 298 296 294 293 291 289 287 286 283 281 279 277 273 267 258 251 246 242 239 236 233 235 237 235 232 226 225 229 231 228 227 230
19 26 75 84 79 113 115 99 164 172 40 345 316 313 16 356 138 125 118 116 117 117 110 99 89 83 81 80 79 79 79 53 349 329 327 325 324 325 323 322 321 318 314 313 311 309 308 306 303 300 299 299 299 298 297 294 292 291 289 288 288 285 282 279 276 274 272 270 266 262 256 251 249 247 247 248 249 247 244 240 238 242 244 242 239 239
11 356 125 125 340 288 140 113 120 30 1 348 342 89 78 98 122 124 119 113 115 114 104 91 82 68 56 52 42 24 5 344 331 324 321 319 318 318 317 316 315 313 311 310 308 307 306 304 301 299 298 297 296 296 295 294 292 289 287 286 286 284 281 279 277 274 271 268 266 265 262 258 255 251 249 249 248 246 244 243 243 246 245 243 242 242
30 25 70 74 52 46 64 82 94 29 30 58 87 97 99 107 115 115 107 104 103 98 87 80 73 50 27 15 2 350 340 332 327 323 319 317 317 315 314 313 312 310 309 308 307 306 304 302 301 300 298 296 294 292 290 289 287 285 284 283 282 281 279 277 275 272 269 266 263 262 261 260 258 255 251 246 241 238 237 238 240 241 240 239 239 238
61 49 39 77 102 88 61 60 66 45 57 79 93 101 104 104 101 93 89 89 84 75 65 53 38 13 352 343 338 335 331 325 321 318 316 316 317 316 316 315 313 313 312 311 310 309 307 305 304 303 301 298 295 291 288 285 282 281 280 279 277 276 276 275 273 271 267 263 260 258 258 258 257 255 253 249 244 239 236 235 236 237 237 237 235 231
41 47 75 103 125 113 88 92 79 57 76 92 100 104 104 102 99 90 80 80 75 60 33 7 355 338 329 328 326 324 324 321 319 319 321 322 323 322 319 317 317 316 315 315 315 314 313 312 310 309 307 304 301 298 293 289 285 282 280 279 276 274 272 270 270 269 268 265 260 256 253 253 253 252 250 249 248 245 241 237 235 233 233 235 234 229
39 55 87 104 75 59 107 127 120 99 110 121 122 124 123 116 109 100 88 82 69 26 353 337 330 324 321 322 321 323 327 329 329 329 329 329 327 323 320 319 318 318 318 319 319 319 318 318 316 314 313 310 309 307 302 297 293 288 284 281 277 274 272 269 267 266 266 266 264 260 255 252 250 249 247 246 246 246 245 241 236 231 230 232 234 232
357 53 101 106 100 90 94 128 144 136 138 156 153 145 140 132 124 120 113 91 20 333 322 314 313 315 317 320 326 334 339 338 335 331 329 326 323 321 320 321 321 323 325 325 325 325 324 321 319 317 316 317 320 320 318 315 312 307 301 293 285 278 272 268 265 263 262 262 262 261 258 254 250 248 246 245 243 243 244 241 236 231 227 227 230 231
320 136 122 113 128 130 156 173 169 151 131 176 175 166 160 158 147 135 130 23 311 307 308 307 309 315 321 329 337 340 339 335 331 328 325 323 321 321 324 328 331 335 337 337 336 334 332 332 332 331 334 340 343 344 346 347 346 341 332 321 309 297 286 277 270 263 259 257 257 257 256 254 251 248 246 244 243 241 240 237 234 231 228 227 228 228
74 151 157 145 141 119 187 180 175 130 53 166 177 178 177 176 167 161 210 276 290 296 298 300 310 325 335 336 334 333 332 331 330 329 326 324 324 329 333 337 342 345 346 347 347 345 345 351 354 352 350 350 347 345 345 346 346 342 333 324 316 308 300 293 284 275 266 260 255 253 252 252 251 248 247 246 244 241 239 236 232 229 227 227 228 226